Location: Moscow
(55.7500°N, 37.5830°E)
Time: 17:26:27
(UTC+03:00)

Transit 2A - Pass Details

Date: 30 November 2021
Orbit: 591 x 967 km, 66.7° (Epoch: 21 January)

Event Time Altitude Azimuth Distance (km) Brightness Sun altitude
Rises 00:33:55 0° 168° (SSE) 3,321 - -55.8°
Reaches altitude 10° 00:36:50 10° 152° (SSE) 2,461 - -55.7°
Maximum altitude 00:40:55 20° 106° (ESE) 1,913 - -55.6°
Drops below altitude 10° 00:45:15 10° 61° (ENE) 2,630 - -55.5°
Exits shadow 00:48:24 - 47° (NE) 3,591 9.9 -55.4°
Sets 00:48:29 0° 46° (NE) 3,620 9.9 -55.4°
